Weather History for Ocala, FL

Change the Weather History Date:

Tuesday, September 10, 2013

  Actual Average Record
Temperature  
Mean Temperature 79 °F -  
Max Temperature 89 °F 86 °F 93 °F (2010)
Min Temperature 69 °F 68 °F 64 °F (2005)
Cooling Degree Days 14    
Growing Degree Days 29 (Base 50)    
Moisture  
Dew Point 65 °F    
Average Humidity 70    
Maximum Humidity 83    
Minimum Humidity 40    
Precipitation  
Precipitation 0.00 in - - ()
Sea Level Pressure  
Sea Level Pressure 30.08 in    
Wind  
Wind Speed 3 mph (NE)    
Max Wind Speed 12 mph    
Max Gust Speed 20 mph    
Visibility 10 miles    
Events      
Averages and records for this station are not official NWS values.
T = Trace of Precipitation, MM = Missing Value Source: NWS Daily Summary

Daily Weather History Graph

Daily Weather History Graph

Search for Another Location

Airport:

Trip Planner

Search our weather history database for the weather conditions in past years. The results will help you decide how hot, cold, wet, or windy it might be!

Date:

Astronomy

Sep. 10, 2013 Rise Set
Actual Time 7:11 AM EDT 7:39 PM EDT
Civil Twilight 6:47 AM EDT 8:03 PM EDT
Nautical Twilight 6:19 AM EDT 8:31 PM EDT
Astronomical Twilight 5:51 AM EDT 8:59 PM EDT
Moon 12:08 PM EDT (9/10) 11:10 PM EDT (9/10)
Length of Visible Light 13h 16m
Length of Day
12h 28m
Waxing Crescent, 28% of the Moon is Illuminated
Sep 10
Waxing Crescent
Sep 12
First Quarter
Sep 19
Full
Sep 26
Last Quarter
Oct 4
New

Hourly Weather History & Observations

Time (EDT) Temp. Heat Index Dew Point Humidity Pressure Visibility Wind Dir Wind Speed Gust Speed Precip Events Conditions
12:15 AM 73.4 °F - 64.4 °F 73% 30.07 in 10.0 mi Calm Calm - N/A   Clear
12:35 AM 73.4 °F - 64.4 °F 73% 30.06 in 5.0 mi Calm Calm - N/A   Clear
12:55 AM 71.6 °F - 64.4 °F 78% 30.06 in 5.0 mi Calm Calm - N/A   Clear
1:15 AM 71.6 °F - 64.4 °F 78% 30.06 in 10.0 mi Calm Calm - N/A   Clear
1:35 AM 71.6 °F - 64.4 °F 78% 30.06 in 10.0 mi Calm Calm - N/A   Clear
1:55 AM 71.6 °F - 64.4 °F 78% 30.06 in 10.0 mi Calm Calm - N/A   Clear
2:15 AM 71.6 °F - 64.4 °F 78% 30.06 in 10.0 mi North 3.5 mph - N/A   Clear
2:35 AM 69.8 °F - 64.4 °F 83% 30.06 in 10.0 mi NNE 3.5 mph - N/A   Clear
2:55 AM 69.8 °F - 64.4 °F 83% 30.05 in 10.0 mi NNE 4.6 mph - N/A   Clear
3:15 AM 69.8 °F - 64.4 °F 83% 30.05 in 10.0 mi NNE 3.5 mph - N/A   Clear
3:35 AM 69.8 °F - 62.6 °F 78% 30.04 in 10.0 mi North 4.6 mph - N/A   Clear
3:55 AM 69.8 °F - 62.6 °F 78% 30.04 in 10.0 mi North 3.5 mph - N/A   Clear
4:15 AM 69.8 °F - 62.6 °F 78% 30.04 in 10.0 mi NNE 4.6 mph - N/A   Clear
4:35 AM 69.8 °F - 64.4 °F 83% 30.04 in 10.0 mi NNE 3.5 mph - N/A   Clear
4:55 AM 69.8 °F - 64.4 °F 83% 30.05 in 10.0 mi NNE 4.6 mph - N/A   Clear
5:15 AM 69.8 °F - 62.6 °F 78% 30.05 in 10.0 mi NNE 3.5 mph - N/A   Clear
5:35 AM 69.8 °F - 62.6 °F 78% 30.05 in 10.0 mi NNE 3.5 mph - N/A   Clear
5:55 AM 69.8 °F - 62.6 °F 78% 30.05 in 10.0 mi Calm Calm - N/A   Clear
6:15 AM 69.8 °F - 62.6 °F 78% 30.06 in 10.0 mi NNE 3.5 mph - N/A   Clear
6:35 AM 69.8 °F - 62.6 °F 78% 30.06 in 10.0 mi NNE 3.5 mph - N/A   Clear
6:50 AM 69.8 °F - 62.6 °F 78% 30.07 in 10.0 mi NNE 3.5 mph - N/A   Partly Cloudy
7:50 AM 69.8 °F - 64.4 °F 83% 30.10 in 10.0 mi North 4.6 mph - N/A   Mostly Cloudy
8:50 AM 75.2 °F - 66.2 °F 73% 30.11 in 10.0 mi NNE 3.5 mph - N/A   Partly Cloudy
9:50 AM 80.6 °F 83.2 °F 68.0 °F 65% 30.13 in 10.0 mi North 4.6 mph - N/A   Mostly Cloudy
10:50 AM 82.4 °F 86.3 °F 69.8 °F 66% 30.13 in 10.0 mi East 4.6 mph - N/A   Mostly Cloudy
12:50 PM 87.8 °F 92.6 °F 69.8 °F 55% 30.11 in 10.0 mi East 6.9 mph - N/A   Mostly Cloudy
1:50 PM 89.6 °F 92.2 °F 66.2 °F 46% 30.10 in 10.0 mi NE 8.1 mph 17.3 mph N/A   Mostly Cloudy
3:50 PM 89.6 °F 90.1 °F 62.6 °F 40% 30.07 in 10.0 mi ENE 6.9 mph 17.3 mph N/A   Scattered Clouds
4:50 PM 87.8 °F 88.5 °F 62.6 °F 43% 30.06 in 10.0 mi ENE 9.2 mph 16.1 mph N/A   Scattered Clouds
5:50 PM 87.8 °F 88.5 °F 62.6 °F 43% 30.06 in 10.0 mi ENE 11.5 mph 19.6 mph N/A   Partly Cloudy
6:50 PM 84.2 °F 85.6 °F 64.4 °F 51% 30.07 in 10.0 mi ENE 6.9 mph - N/A   Partly Cloudy
7:55 PM 82.4 °F 83.9 °F 64.4 °F 54% 30.08 in 10.0 mi ENE 6.9 mph - N/A   Partly Cloudy
8:15 PM 80.6 °F 82.7 °F 66.2 °F 61% 30.09 in 10.0 mi ENE 5.8 mph - N/A   Clear
8:35 PM 80.6 °F 82.7 °F 66.2 °F 61% 30.09 in 10.0 mi ENE 5.8 mph - N/A   Clear
8:55 PM 80.6 °F 82.7 °F 66.2 °F 61% 30.10 in 10.0 mi ENE 5.8 mph - N/A   Scattered Clouds
9:15 PM 78.8 °F - 66.2 °F 65% 30.11 in 10.0 mi ENE 4.6 mph - N/A   Partly Cloudy
9:35 PM 78.8 °F - 66.2 °F 65% 30.11 in 10.0 mi NE 4.6 mph - N/A   Clear
9:55 PM 78.8 °F - 66.2 °F 65% 30.11 in 10.0 mi ENE 3.5 mph - N/A   Clear
10:15 PM 77.0 °F - 66.2 °F 69% 30.11 in 10.0 mi NE 3.5 mph - N/A   Clear
10:35 PM 77.0 °F - 66.2 °F 69% 30.12 in 10.0 mi NE 3.5 mph - N/A   Clear
10:55 PM 75.2 °F - 66.2 °F 73% 30.12 in 10.0 mi NE 3.5 mph - N/A   Clear
11:15 PM 75.2 °F - 66.2 °F 73% 30.11 in 10.0 mi NE 3.5 mph - N/A   Clear
11:35 PM 75.2 °F - 66.2 °F 73% 30.11 in 10.0 mi NNE 3.5 mph - N/A   Clear
11:55 PM 75.2 °F - 66.2 °F 73% 30.11 in 10.0 mi NE 3.5 mph - N/A   Clear